STARLINK-5751, 55576

Orbit data source: Space-Track

STARLINK-5751, 55576 is a payload satellite owned by SpaceX/Seattle (US) in LEO that was launched on Sun, 12 Feb 2023 UTC via an FALCON 9 launch vehicle from the Air Force Eastern Test Range (AFETR). Payload-class satellites include a variety of spacecraft equipped with specific instruments for various scientific and technological missions. These include communications satellites like Starlink; space stations such as the ISS; scientific satellites like the Hubble; Earth observation satellites from companies like Planet Labs, Umbra, and HawkEye 360; GPS; miniature CubeSats for education and research; and military/defense satellites.

Loading next visibility...
Identifier
55576, 2023-020H
Orbit
LEO
Country
Flag of USUS
Related business
Manufacturer
SpaceX/Seattle
Mission
Operational Commercial Communications
Bus & Motor
STARLINK, Unknown motor
Mass
305 kg wet, ~290 kg dry
Launch date (UTC)
2023-02-12 (3 years ago)
Launch vehicle
FALCON 9
Launch site
Air Force Eastern Test Range (AFETR)
Object type
Payload
Rocket body
Debris
Shape & HBR
Box + 1 Pan, 10.1 m
Radar Cross Section
13.562 m², Large (>1 m²)

Expand to show TLE details & history
Last TLE update: 2 days ago

TLE from 2 days ago
0 STARLINK-5751
1 55576U 23020H   26171.23670093  .00000321  00000-0  21177-4 0  9990
2 55576  43.0023 120.2822 0001031 269.6918  90.3816 15.27575838184893
Epoch: 2026-06-20T05:40Z
TLE epoch observation values (Epoch: 2026-06-20T05:40:50.960Z)
Latitude
0.00002°
Longitude
126.61567°
Altitude
482.842 km
Speed
7.626 km/s
True Right ascension
08h 01m 07s
True Declination
0° 00' 00"
Sunlit
Object was in daylight at epoch
Visualization orbit readout
Latitude
Unknown
Longitude
Unknown
Altitude
Unknown
Speed
Unknown
Apparent Right ascension
Unknown
Apparent Declination
Unknown
Sunlit
N/A
Visualization observer readout
Local Sidereal Time
21:43:01
Azimuth
Unknown
Elevation
Unknown
Doppler factor
Unknown
Orbital elements
Apogee altitude
485.714 km
Perigee altitude
484.299 km
Semi-major axis
6,863.143 km
Eccentricity
0.0001
Inclination
43.0023°
RAAN
120.2822°
Arg. of periapsis
269.6918°
True anomaly
90.39341°
Mean anomaly
90.3816°
Eccentric anomaly
90.38751°
Mean motion
3.81732 °/min
Orbital period
94.31 mins
BSTAR
0.000021177
Loading maneuver chart data...
Computing Atmospheric mass density...
Loading historical data...
Loading historical data...
Loading historical data...
Loading historical data...
Loading historical data...
Loading historical data...
Loading historical data...

Documentation

Showing up to 5 results
|